Hourly Data Report for July 15, 2021

TORONTO INTL A
ONTARIO
Current Station Operator: NAVCAN

43°40'36.000" N
79°37'50.000" W
173.40 m
6158731
71624
YYZ

Download Data

Hourly Data (July 2021)
Hourly Data Report for July 15, 2021
TIME
LST
Temp Definition
°C
Dew Point Definition
°C
Rel Hum Definition
%
Precip. Amount Definition
mm

Wind Dir Definition
10's deg

Wind Spd Definition
km/h
Visibility Definition
km
Stn Press Definition
kPa
Hmdx Definition


Wind Chill Definition


Weather Definition


00:00 21.8 18.4 81   24 10 24.1 99.79 28   LegendNANA
01:00 21.6 18.4 81   24 8 24.1 99.77 28   Mainly Clear
02:00 21.6 18.2 81   18 6 24.1 99.78 28   LegendNANA
03:00 20.9 18.3 85   23 9 24.1 99.75 27   LegendNANA
04:00 20.8 19.0 89   22 11 24.1 99.69 28   Mainly Clear
05:00 20.9 18.8 87   20 10 19.3 99.67 28   LegendNANA
06:00 21.4 19.0 86   17 7 24.1 99.64 28   LegendNANA
07:00 23.0 19.5 80   18 10 24.1 99.64 30   Mostly Cloudy
08:00 23.3 20.1 81   15 11 24.1 99.59 31   LegendNANA
09:00 24.3 20.5 79   14 13 24.1 99.53 32   LegendNANA
10:00 26.4 20.3 69   20 16 24.1 99.46 34   Mostly Cloudy
11:00 27.2 20.1 65   20 31 24.1 99.42 35   LegendNANA
12:00 27.0 20.2 66   21 26 24.1 99.34 35   LegendNANA
13:00 28.1 21.0 65   20 22 24.1 99.23 37   Cloudy
14:00 29.3 21.5 62   23 28 24.1 99.17 38   LegendNANA
15:00 28.6 20.3 60   20 34 24.1 99.11 36   LegendNANA
16:00 29.0 20.7 60   22 35 24.1 99.05 37   Mostly Cloudy
17:00 28.2 20.0 60   23 42 24.1 99.03 36   LegendNANA
18:00 27.7 20.5 64   23 30 24.1 99.00 36   LegendNANA
19:00 23.8 21.9 89   26 19 16.1 99.05 33   Rain Showers
20:00 21.8 20.7 94   28 23 6.4 99.14 30   Moderate Rain Showers
21:00 22.5 21.2 93   28 13 12.9 99.23 31   Thunderstorms,Rain Showers
22:00 21.6 18.2 81   31 22 24.1 99.29 28   Mostly Cloudy
23:00 20.6 17.9 84   31 17 24.1 99.31 27   LegendNANA

Notes on Data Quality.

Legend

  • E = Estimated
  • M = Missing
  • NA = Not Available*
  • [empty] = Indicates an unobserved value
Date modified: